Regional Weather Roundup
Issued by NWS

Home | Current Version | Previous Version | Graphics & Text | Print | Product List | Glossary On
Versions: 1 2 3 4 5 6 7 8 9 10 11 12 13 14 15 16 17 18 19 20 21 22 23 24 25 26 27 28 29 30 31 32 33 34 35 36 37 38 39 40 41 42 43 44 45 46 47 48 49 50
000
ASUS43 KMKX 250511
RWRWI

WISCONSIN REGIONAL WEATHER ROUNDUP
NATIONAL WEATHER SERVICE MILWAUKEE/SULLIVAN WI
1200 AM CDT WED MAY 25 2016

NOTE: "FAIR" INDICATES FEW OR NO CLOUDS BELOW 12,000 FEET WITH NO
SIGNIFICANT WEATHER AND/OR OBSTRUCTIONS TO VISIBILITY.

WIZ001-002-006>008-014>016-023>028-250600-
NORTHWEST WISCONSIN

CITY           SKY/WX    TMP DP  RH WIND       PRES   REMARKS
SUPERIOR ARPT  FOG       46  46 100 NE9       30.04R VSB 3/4
ASHLAND        FOG       48  48 100 N6        30.02F VSB 1/4
HAYWARD        CLEAR     59  57  93 NE7       29.99R
SIREN          CLEAR     61  57  87 NE3       29.96R
CUMBERLAND     CLEAR     59  55  88 NE3       29.96S
RICE LAKE      CLEAR     59  55  88 CALM      29.97S
CHETEK         CLEAR     62  59  90 E5        29.95S
LADYSMITH      CLEAR     62  59  90 NE6       29.99R
EAU CLAIRE     CLEAR     60  55  83 CALM      29.94R
MENOMONIE      CLEAR     61  55  80 CALM      29.94S
NEW RICHMOND   CLEAR     65  54  68 E5        29.94S
OSCEOLA        CLEAR     62  61  97 SE3       29.96S
$$

WIZ003>005-009-010-017-018-250600-
NORTH CENTRAL WISCONSIN

CITY           SKY/WX    TMP DP  RH WIND       PRES   REMARKS
MANITOWISH WTR NOT AVBL
ARBOR VITAE    CLEAR     57  55  95 CALM      30.00S
WOODRUFF       CLEAR     57  55  95 CALM      30.00S
RHINELANDER    FOG       56  55  97 CALM      30.00S VSB 1/4
EAGLE RIVER    FOG       55  55 100 CALM      30.00S VSB 1
LAND O LAKES   CLOUDY    62  62 100 CALM      30.02R FOG
PHILLIPS       CLEAR     56  56 100 NE3       29.99S
TOMAHAWK       CLEAR     53  52  96 CALM      30.00R
MEDFORD        CLEAR     59  58  94 E5        29.98S
MERRILL        PTCLDY    55  55  98 CALM      29.99S
$$

WIZ029-030-035-036-043>047-250600-
CENTRAL WISCONSIN

CITY           SKY/WX    TMP DP  RH WIND       PRES   REMARKS
WAUSAU         PTCLDY    67  57  70 CALM      29.95S
MOSINEE        CLEAR     63  57  82 N9G17     29.98S
MARSHFIELD     CLEAR     63  56  78 CALM      29.96R
STEVENS POINT  CLEAR     57  54  89 CALM      29.97R
WAUPACA        CLEAR     63  57  80 CALM      29.96R
WAUTOMA        CLEAR     59  56  89 CALM      29.96S
WISC RAPIDS    PTCLDY    61  56  83 CALM      29.97R
CAMP DOUGLAS   NOT AVBL
$$

WIZ011>013-019>022-031-037>040-048>050-250600-
NORTHEAST WISCONSIN

CITY           SKY/WX    TMP DP  RH WIND       PRES   REMARKS
ANTIGO         PTCLDY    57  55  92 CALM      29.99S
SHAWANO        CLEAR     64  58  82 CALM      29.96R
OCONTO         CLEAR    N/A N/A N/A W5        29.95R
STURGEON BAY   NOT AVBL
GREEN BAY      CLEAR     63  58  83 NE3       29.94S
MANITOWOC      CLEAR     58  55  90 N7        29.95S
APPLETON       CLEAR     64  52  63 CALM      29.94S
CLINTONVILLE   CLEAR     59  52  77 CALM      29.95R
OSHKOSH        CLEAR     62  56  80 W3        29.95S
$$

WIZ032>034-041-042-053>061-250600-
SOUTHWEST WISCONSIN

CITY           SKY/WX    TMP DP  RH WIND       PRES   REMARKS
LA CROSSE      CLEAR     67  59  75 CALM      29.93R
SPARTA         CLEAR     56  55  97 CALM      29.95S
VIROQUA        CLEAR     65  56  74 E6        29.95S
BOSCOBEL       CLEAR     60  59  96 CALM      29.94R FOG
PRAIRIE DU CHI CLEAR     65  61  86 CALM      29.92S
PLATTEVILLE    PTCLDY    70  60  72 E8        29.94F
$$

WIZ056-057-062-063-064-067-068-250600-
SOUTH CENTRAL WISCONSIN

CITY           SKY/WX    TMP DP  RH WIND       PRES   REMARKS
REEDSBURG      CLEAR     59  59  99 CALM      29.94S
BARABOO/DELLS  CLEAR     60  55  84 CALM      29.95S
LONE ROCK      CLEAR     62  59  90 CALM      29.94S
MINERAL POINT  CLEAR     70  55  60 E6        29.95S
MADISON        CLEAR     66  59  78 CALM      29.94F
MIDDLETON      PTCLDY    64  59  85 CALM      29.95S
WATERTOWN      CLOUDY    64  64  98 CALM      29.95S
MONROE         PTCLDY    70  57  64 E6        29.95S
JANESVILLE     MOCLDY    66  63  88 CALM      29.94F
$$

WIZ051-052-058>065-066-070>072-250600-
SOUTHEAST WISCONSIN

CITY           SKY/WX    TMP DP  RH WIND       PRES   REMARKS
MILWAUKEE      MOCLDY    62  51  67 SE3       29.96S
WAUKESHA       PTCLDY    63  61  94 CALM      29.97F FOG
MILWAUKEE/TIMM PTCLDY    64  59  82 CALM      29.96F
RACINE         PTCLDY    62  50  64 CALM      29.97F
BURLINGTON     CLOUDY    69  60  71 CALM      29.96S
KENOSHA        CLOUDY    66  53  63 E3        29.96S
FOND DU LAC    CLEAR     59  57  93 CALM      29.95S
SHEBOYGAN      CLEAR     58  55  90 CALM      29.95F
WEST BEND      CLOUDY    61  59  94 S5        29.96S
JUNEAU         CLOUDY    65  58  77 SE6       29.96F
$$

LSZ147-162-250600-
LAKE SUPERIOR

STATION/POSITION TIME  TEMP    WIND        PRES    WAVE
                       AIR SEA DIR/SP/G            HT/PER
                 (UTC) (F)     (DEG/KT/KT) (MB)    (FT/S)
W MID LAKE BUOY  0450   42 38   30/ 12/ 14 1018.4R   2/ 4
DEVILS ISLAND    0500   44      50/ 19/ 22 1017.8R
PORT WING        0240   45      30/ 15/ 22 1015.6
SAXON HARBOR     0400   46     360/  4/  6 1016.3R
$$

LMZ867-665-643>646-250600-
LAKE MICHIGAN

STATION/POSITION TIME  TEMP    WIND        PRES    WAVE
                       AIR SEA DIR/SP/G            HT/PER
                 (UTC) (F)     (DEG/KT/KT) (MB)    (FT/S)
CHAMBERS ISLAND  0400   57     350/  4/ 11 1014.6R
N MID LAKE BUOY  0450   47 44  340/  8/ 12 1014.7R   2/ 5
NORTHPORT PIER   0400   52      CALM  /  7 1014.6R
SISTER BAY       0449   57        CALM       N/A
ALGOMA LAKESHORE 0417             CALM       N/A
KEWAUNEE LAKESHO 0400   59     180/  1/  3 1013.4R
SHEBOYGAN LAKESH 0500   66     260/  5/  6 1014.3F
PORT WASHINGTON  0400   62     270/  3/  3 1015.2
S MID LAKE BUOY  0450   61 49  150/  6/  8 1014.5F   0
KENOSHA   LAKESH 0500   62        CALM     1014.2F
$$

TC  - TEMPERATURE IN CELSIUS
VSB - VISIBILITY IN STATUTE MILES
WCI - WIND CHILL INDEX
HX  - HEAT INDEX





USA.gov is the U.S. government's official web portal to all federal, state and local government web resources and services.